Williamsport, PA

5:04 AM EDT on April 24, 2017 (GMT -0400)
Williamsport Rgnl

Weather History for KIPT - November, 2011

Change the Weather History Date:

Monday, November 28, 2011

  Actual Average Record
Temperature  
Mean Temperature 60 °F 37 °F  
Max Temperature 66 °F 44 °F 68 °F (1990)
Min Temperature 53 °F 30 °F 10 °F (1930)
Degree Days  
Heating Degree Days 5 28  
Month to date heating degree days 542 645  
Since 1 July heating degree days 980 1188  
Cooling Degree Days 0 0  
Month to date cooling degree days 0 0  
Year to date cooling degree days 992 702  
Growing Degree Days 12 (Base 50)    
Moisture  
Dew Point 49 °F    
Average Humidity 69    
Maximum Humidity 80    
Minimum Humidity 58    
Precipitation  
Precipitation 0.00 in 0.13 in 3.40 in (1966)
Month to date precipitation 2.64 3.47  
Year to date precipitation 65.82 38.08  
Snow  
Snow 0.00 in 0.10 in 2.00 in (1931)
Month to date snowfall T 1.5  
Since 1 July snowfall 1.0 1.6  
Since 1 September snowfall 1.0 1.6  
Snow Depth 0.00 in    
Sea Level Pressure  
Sea Level Pressure 30.02 in    
Wind  
Wind Speed 7 mph (East)    
Max Wind Speed 15 mph    
Max Gust Speed 23 mph    
Visibility 10 miles    
Events      
T = Trace of Precipitation, MM = Missing Value Source: NWS Daily Summary

Daily Weather History Graph

Daily Weather History Graph

Search for Another Location

Airport or City:

Trip Planner

Search our weather history database for the weather conditions in past years. The results will help you decide how hot, cold, wet, or windy it might be!

Date:

Astronomy

Nov. 28, 2011 Rise Set
Actual Time 7:10 AM EST 4:40 PM EST
Civil Twilight 6:39 AM EST 5:11 PM EST
Nautical Twilight 6:05 AM EST 5:45 PM EST
Astronomical Twilight 5:32 AM EST 6:18 PM EST
Moon 10:18 AM EST (11/28) 8:25 PM EST (11/28)
Length of Visible Light 10h 31m
Length of Day
9h 30m
Waxing Crescent, 15% of the Moon is Illuminated
Nov 28
Waxing Crescent
Dec 2
First Quarter
Dec 10
Full
Dec 17
Last Quarter
Dec 24
New

Hourly Weather History & Observations

Time (EST) Temp. Dew Point Humidity Pressure Visibility Wind Dir Wind Speed Gust Speed Precip Events Conditions
12:54 AM 59.0 °F 46.9 °F 64% 29.99 in 10.0 mi Variable 3.5 mph - N/A   Mostly Cloudy
1:54 AM 59.0 °F 46.9 °F 64% 30.00 in 10.0 mi ENE 6.9 mph - N/A   Scattered Clouds
2:54 AM 59.0 °F 46.9 °F 64% 30.03 in 10.0 mi Variable 3.5 mph - N/A   Clear
3:54 AM 59.0 °F 48.0 °F 67% 30.01 in 10.0 mi Variable 4.6 mph - N/A   Mostly Cloudy
4:54 AM 59.0 °F 48.9 °F 69% 30.01 in 10.0 mi South 11.5 mph 20.7 mph N/A   Overcast
5:54 AM 57.9 °F 48.9 °F 72% 30.04 in 10.0 mi Variable 4.6 mph - N/A   Mostly Cloudy
6:54 AM 57.0 °F 48.9 °F 74% 30.05 in 10.0 mi NE 5.8 mph - N/A   Overcast
7:54 AM 57.0 °F 50.0 °F 77% 30.07 in 10.0 mi ENE 9.2 mph - N/A   Overcast
8:54 AM 57.9 °F 50.0 °F 75% 30.09 in 10.0 mi ENE 6.9 mph - N/A   Overcast
9:54 AM 57.9 °F 51.1 °F 78% 30.09 in 10.0 mi East 5.8 mph - N/A   Partly Cloudy
10:54 AM 59.0 °F 51.1 °F 75% 30.08 in 10.0 mi ENE 8.1 mph - N/A   Scattered Clouds
11:54 AM 62.6 °F 51.8 °F 68% 30.05 in 10.0 mi NE 6.9 mph - N/A   Scattered Clouds
12:54 PM 66.0 °F 52.0 °F 60% 30.04 in 10.0 mi NE 4.6 mph - N/A   Mostly Cloudy
1:54 PM 64.0 °F 52.0 °F 65% 30.02 in 10.0 mi East 3.5 mph - N/A   Scattered Clouds
2:54 PM 64.0 °F 51.1 °F 63% 30.01 in 10.0 mi ESE 5.8 mph - N/A   Clear
3:54 PM 63.0 °F 50.0 °F 63% 30.02 in 10.0 mi South 5.8 mph - N/A   Clear
4:54 PM 62.1 °F 50.0 °F 65% 30.02 in 10.0 mi SE 6.9 mph - N/A   Clear
5:54 PM 62.1 °F 50.0 °F 65% 30.03 in 10.0 mi SE 10.4 mph - N/A   Clear
6:54 PM 62.1 °F 48.9 °F 62% 30.02 in 10.0 mi SE 8.1 mph - N/A   Partly Cloudy
7:54 PM 60.1 °F 48.9 °F 67% 30.01 in 10.0 mi NNE 3.5 mph - N/A   Clear
8:54 PM 62.6 °F 48.2 °F 59% 30.00 in 10.0 mi SE 12.7 mph - N/A   Clear
9:54 PM 60.1 °F 48.9 °F 67% 30.00 in 10.0 mi ESE 10.4 mph - N/A   Partly Cloudy
10:34 PM 60.8 °F 50.0 °F 68% 29.98 in 10.0 mi ESE 8.1 mph - N/A   Overcast
10:54 PM 59.0 °F 48.9 °F 69% 29.98 in 10.0 mi East 9.2 mph - N/A   Mostly Cloudy
11:17 PM 60.8 °F 50.0 °F 68% 29.97 in 10.0 mi East 8.1 mph - N/A   Scattered Clouds
11:54 PM 57.2 °F 48.2 °F 72% 29.96 in 10.0 mi ESE 9.2 mph - N/A   Clear